Tracking 19149 objects as of 20-Apr-2018
HD Live streaming from Space Station
objects crossing your sky now

COSMOS 909

Track COSMOS 909 now!
10-day predictions
COSMOS 909 is classified as:


NORAD ID: 10010
Int'l Code: 1977-036A
Perigee: 1,000.1 km
Apogee: 2,109.9 km
Inclination: 65.9 °
Period: 117.0 minutes
Semi major axis: 7925 km
RCS: 1.4527 m2 (large)
Launch date: May 19, 1977
Source: Commonwealth of Independent States (former USSR) (CIS)
Launch site: PLESETSK MISSILE AND SPACE COMPLEX (PKMTR)
aabbcc
Your satellite tracking list
Your tracking list is empty




NASA's NSSDC Master Catalog

Two Line Element Set (TLE):
1 10010U 77036A   18109.54007116 -.00000041 +00000-0 +46247-4 0  9991
2 10010 065.8630 169.5078 0700127 135.4763 230.4722 12.30334674818611
Source of the keplerian elements: AFSPC